English version Home page |
Updated on December 5, 2004 |
|
軌道要素T 2004 Oct. 7.897 TT MPC q 0.11283 (2000.0) P Q Peri. 5.354 -0.992905 +0.112547 Node 182.464 -0.110999 -0.761595 e 1.0 Incl. 63.174 +0.042638 +0.638206 >From 59 observations 2004 Sept. 9-27.
|
星図
|
光度変化m1 = 10.5 + 5 logΔ + 13.2 log r [ ,-21] ( 〜2004年 9月16日) m1 = 9.5 + 5 logΔ + 5 log r [-21, 0] (2004年 9月16日〜2004年10月 7日) m1 = 20.2 + 5 logΔ + 13.5 log r [ 0, ] (2004年10月 7日〜 ) ※ 灰色の曲線は、m1 = 14.3 + 5 logΔ + 10.0 log r の光度曲線です。
|
軌道要素はM.P.E.C. 2004-T08に掲載されたものです。
|